Location: Banff
(51.1667°N, 115.5667°W)
Time: 15:18:52
(UTC+00:00)

Vanguard 1 - Pass Details

Date: 27 November 2020
Orbit: 649 x 3834 km, 34.3° (Epoch: 16 January)

Event Time Altitude Azimuth Distance (km) Brightness Sun altitude
Exits shadow 12:14:00 - 190° (S) 3,207 12.6 -28.2°
Reaches altitude 10° 12:16:14 10° 173° (S) 2,925 12.5 -27.9°
Maximum altitude 12:19:46 14° 143° (SE) 3,019 12.9 -27.3°
Drops below altitude 10° 12:24:13 10° 114° (ESE) 3,874 13.9 -26.6°
Sets 12:30:33 0° 95° (E) 5,626 15.3 -25.6°
